Time,TemperatureF,DewpointF,PressureIn,WindDirection,WindDirectionDegrees,WindSpeedMPH,WindSpeedGustMPH,Humidity,HourlyPrecipIn,Conditions,Clouds,dailyrainin,SoftwareType,DateUTC
2013-04-29 00:00:00,56.2,54.8,29.90,SSE,151,5.0,11.0,95,0.07,,,0.00,Wunderground v.1.15,2013-04-29 04:00:00,
2013-04-29 00:05:00,56.2,54.8,29.90,SSW,203,6.0,11.0,95,0.06,,,0.01,Wunderground v.1.15,2013-04-29 04:05:00,
2013-04-29 00:10:00,56.2,54.8,29.90,SW,222,5.0,5.0,95,0.06,,,0.01,Wunderground v.1.15,2013-04-29 04:10:00,
2013-04-29 00:15:00,56.2,54.8,29.90,SE,145,5.0,5.0,95,0.05,,,0.01,Wunderground v.1.15,2013-04-29 04:15:00,
2013-04-29 00:20:00,56.2,54.8,29.90,SSW,205,5.0,7.0,95,0.00,,,0.01,Wunderground v.1.15,2013-04-29 04:20:00,
2013-04-29 00:25:00,56.1,54.7,29.90,SW,231,6.0,7.0,95,0.00,,,0.01,Wunderground v.1.15,2013-04-29 04:25:00,
2013-04-29 00:30:00,56.1,54.7,29.90,SSE,165,6.0,6.0,95,0.00,,,0.01,Wunderground v.1.15,2013-04-29 04:30:00,
2013-04-29 00:35:00,56.1,54.7,29.90,SSW,196,6.0,7.0,95,0.00,,,0.01,Wunderground v.1.15,2013-04-29 04:35:00,
2013-04-29 00:40:00,56.1,54.7,29.90,ESE,116,6.0,6.0,95,0.00,,,0.02,Wunderground v.1.15,2013-04-29 04:40:00,
2013-04-29 00:45:00,56.1,54.7,29.90,South,191,5.0,6.0,95,0.00,,,0.02,Wunderground v.1.15,2013-04-29 04:45:00,
2013-04-29 00:50:00,56.1,54.7,29.90,SSW,198,5.0,6.0,95,0.00,,,0.02,Wunderground v.1.15,2013-04-29 04:50:00,
2013-04-29 00:55:00,56.0,54.6,29.90,SSE,167,5.0,6.0,95,0.00,,,0.02,Wunderground v.1.15,2013-04-29 04:55:00,
2013-04-29 01:05:00,55.9,54.5,29.90,SE,145,4.0,7.0,95,0.00,,,0.02,Wunderground v.1.15,2013-04-29 05:05:00,
2013-04-29 01:10:00,55.9,54.5,29.90,WSW,250,4.0,4.0,95,0.00,,,0.02,Wunderground v.1.15,2013-04-29 05:10:00,
2013-04-29 01:20:00,55.7,54.3,29.90,SE,139,5.0,5.0,95,0.00,,,0.02,Wunderground v.1.15,2013-04-29 05:20:00,
2013-04-29 01:25:00,55.6,54.2,29.90,SSE,165,4.0,5.0,95,0.00,,,0.02,Wunderground v.1.15,2013-04-29 05:25:00,
2013-04-29 01:30:00,55.5,54.1,29.90,SSE,163,4.0,4.0,95,0.00,,,0.02,Wunderground v.1.15,2013-04-29 05:30:00,
2013-04-29 01:35:00,55.3,53.6,29.90,SSW,203,4.0,4.0,94,0.00,,,0.02,Wunderground v.1.15,2013-04-29 05:35:00,
2013-04-29 01:45:00,54.7,53.3,29.90,SSW,210,2.0,3.0,95,0.00,,,0.02,Wunderground v.1.15,2013-04-29 05:45:00,
2013-04-29 01:55:00,54.4,53.0,29.90,SW,235,1.0,2.0,95,0.00,,,0.02,Wunderground v.1.15,2013-04-29 05:55:00,
2013-04-29 02:00:00,54.3,52.9,29.91,WSW,246,1.0,1.0,95,0.00,,,0.02,Wunderground v.1.15,2013-04-29 06:00:00,
2013-04-29 02:10:00,54.5,53.4,29.90,SW,219,3.0,3.0,96,0.00,,,0.02,Wunderground v.1.15,2013-04-29 06:10:00,
2013-04-29 02:15:00,54.4,53.3,29.90,SSW,196,3.0,3.0,96,0.00,,,0.02,Wunderground v.1.15,2013-04-29 06:15:00,
2013-04-29 02:25:00,54.3,53.2,29.90,SW,214,2.0,2.0,96,0.00,,,0.02,Wunderground v.1.15,2013-04-29 06:25:00,
2013-04-29 02:30:00,54.3,53.2,29.90,SSW,204,2.0,4.0,96,0.00,,,0.02,Wunderground v.1.15,2013-04-29 06:30:00,
2013-04-29 02:35:00,54.4,53.3,29.89,South,176,3.0,5.0,96,0.00,,,0.02,Wunderground v.1.15,2013-04-29 06:35:00,
2013-04-29 02:40:00,54.5,53.4,29.90,SSW,208,4.0,4.0,96,0.00,,,0.02,Wunderground v.1.15,2013-04-29 06:40:00,
2013-04-29 02:45:00,54.6,53.5,29.90,South,173,4.0,4.0,96,0.00,,,0.02,Wunderground v.1.15,2013-04-29 06:45:00,
2013-04-29 02:50:00,54.7,53.6,29.89,South,179,3.0,3.0,96,0.00,,,0.02,Wunderground v.1.15,2013-04-29 06:50:00,
2013-04-29 03:00:00,54.9,53.8,29.89,SSW,200,4.0,4.0,96,0.00,,,0.02,Wunderground v.1.15,2013-04-29 07:00:00,
2013-04-29 03:10:00,55.0,53.9,29.90,SSW,193,4.0,4.0,96,0.00,,,0.02,Wunderground v.1.15,2013-04-29 07:10:00,
2013-04-29 03:15:00,55.1,54.0,29.90,South,177,3.0,4.0,96,0.00,,,0.02,Wunderground v.1.15,2013-04-29 07:15:00,
2013-04-29 03:20:00,55.1,53.7,29.90,SSW,193,3.0,3.0,95,0.00,,,0.02,Wunderground v.1.15,2013-04-29 07:20:00,
2013-04-29 03:25:00,55.2,53.8,29.90,SSW,197,3.0,3.0,95,0.00,,,0.02,Wunderground v.1.15,2013-04-29 07:25:00,
2013-04-29 03:35:00,55.2,53.8,29.90,South,174,3.0,3.0,95,0.00,,,0.02,Wunderground v.1.15,2013-04-29 07:35:00,
2013-04-29 03:40:00,55.2,53.8,29.90,SSW,196,3.0,3.0,95,0.00,,,0.02,Wunderground v.1.15,2013-04-29 07:40:00,
2013-04-29 03:45:00,55.2,53.8,29.90,SSW,204,2.0,3.0,95,0.00,,,0.02,Wunderground v.1.15,2013-04-29 07:45:00,
2013-04-29 03:55:00,55.3,53.9,29.90,South,169,3.0,7.0,95,0.00,,,0.02,Wunderground v.1.15,2013-04-29 07:55:00,
2013-04-29 04:00:00,55.3,53.9,29.90,South,187,3.0,3.0,95,0.00,,,0.02,Wunderground v.1.15,2013-04-29 08:00:00,
2013-04-29 04:10:00,55.4,54.0,29.90,South,172,3.0,3.0,95,0.00,,,0.02,Wunderground v.1.15,2013-04-29 08:10:00,
2013-04-29 04:15:00,55.4,54.0,29.90,South,180,4.0,4.0,95,0.00,,,0.02,Wunderground v.1.15,2013-04-29 08:15:00,
2013-04-29 04:20:00,55.5,54.1,29.90,South,190,4.0,5.0,95,0.00,,,0.02,Wunderground v.1.15,2013-04-29 08:20:00,
2013-04-29 04:25:00,55.5,54.1,29.90,SSE,156,5.0,6.0,95,0.00,,,0.02,Wunderground v.1.15,2013-04-29 08:25:00,
2013-04-29 04:35:00,55.6,54.2,29.91,SSW,204,4.0,6.0,95,0.00,,,0.02,Wunderground v.1.15,2013-04-29 08:35:00,
2013-04-29 04:45:00,55.6,54.2,29.91,South,173,4.0,4.0,95,0.00,,,0.02,Wunderground v.1.15,2013-04-29 08:45:00,
2013-04-29 04:50:00,55.7,54.3,29.91,SSW,207,4.0,4.0,95,0.00,,,0.02,Wunderground v.1.15,2013-04-29 08:50:00,
2013-04-29 04:55:00,55.7,54.0,29.91,SSE,162,3.0,4.0,94,0.00,,,0.02,Wunderground v.1.15,2013-04-29 08:55:00,
2013-04-29 05:00:00,55.7,54.0,29.91,South,184,3.0,4.0,94,0.00,,,0.02,Wunderground v.1.15,2013-04-29 09:00:00,
2013-04-29 05:10:00,55.6,53.9,29.91,SSW,200,4.0,4.0,94,0.00,,,0.02,Wunderground v.1.15,2013-04-29 09:10:00,
2013-04-29 05:20:00,55.6,54.2,29.92,South,172,5.0,10.0,95,0.00,,,0.02,Wunderground v.1.15,2013-04-29 09:20:00,
2013-04-29 05:30:00,55.7,54.0,29.91,South,185,7.0,10.0,94,0.00,,,0.02,Wunderground v.1.15,2013-04-29 09:30:00,
2013-04-29 05:35:00,55.8,54.1,29.91,South,184,7.0,10.0,94,0.00,,,0.02,Wunderground v.1.15,2013-04-29 09:35:00,
2013-04-29 05:40:00,55.8,54.1,29.91,SSE,167,6.0,6.0,94,0.00,,,0.02,Wunderground v.1.15,2013-04-29 09:40:00,
2013-04-29 05:45:00,55.8,54.1,29.91,SSE,167,5.0,6.0,94,0.00,,,0.02,Wunderground v.1.15,2013-04-29 09:45:00,
2013-04-29 05:50:00,55.8,54.1,29.92,SSE,168,5.0,6.0,94,0.00,,,0.02,Wunderground v.1.15,2013-04-29 09:50:00,
2013-04-29 05:55:00,55.8,54.1,29.92,South,191,5.0,6.0,94,0.00,,,0.02,Wunderground v.1.15,2013-04-29 09:55:00,
2013-04-29 06:00:00,55.8,54.4,29.92,SSW,198,5.0,7.0,95,0.00,,,0.02,Wunderground v.1.15,2013-04-29 10:00:00,
2013-04-29 06:10:00,55.8,54.4,29.92,SSW,194,5.0,5.0,95,0.00,,,0.02,Wunderground v.1.15,2013-04-29 10:10:00,
2013-04-29 06:15:00,55.8,54.4,29.92,South,180,5.0,5.0,95,0.00,,,0.02,Wunderground v.1.15,2013-04-29 10:15:00,
2013-04-29 06:20:00,55.8,54.4,29.92,SSW,193,5.0,5.0,95,0.00,,,0.02,Wunderground v.1.15,2013-04-29 10:20:00,
2013-04-29 06:30:00,55.8,54.4,29.93,SSW,200,5.0,6.0,95,0.00,,,0.02,Wunderground v.1.15,2013-04-29 10:30:00,
2013-04-29 06:35:00,55.7,54.3,29.93,South,185,5.0,6.0,95,0.00,,,0.02,Wunderground v.1.15,2013-04-29 10:35:00,
2013-04-29 06:40:00,55.7,54.3,29.93,SSW,194,3.0,3.0,95,0.00,,,0.02,Wunderground v.1.15,2013-04-29 10:40:00,
2013-04-29 06:50:00,55.7,54.3,29.93,SSW,208,3.0,3.0,95,0.00,,,0.02,Wunderground v.1.15,2013-04-29 10:50:00,
2013-04-29 06:55:00,55.7,54.3,29.93,SSW,201,3.0,3.0,95,0.00,,,0.02,Wunderground v.1.15,2013-04-29 10:55:00,
2013-04-29 07:00:00,55.7,54.3,29.93,South,191,3.0,3.0,95,0.00,,,0.02,Wunderground v.1.15,2013-04-29 11:00:00,
2013-04-29 07:10:00,55.8,54.4,29.94,SSE,160,3.0,3.0,95,0.00,,,0.02,Wunderground v.1.15,2013-04-29 11:10:00,
2013-04-29 07:15:00,55.8,54.4,29.94,SSW,198,3.0,3.0,95,0.00,,,0.02,Wunderground v.1.15,2013-04-29 11:15:00,
2013-04-29 07:20:00,55.8,54.4,29.94,SSW,204,3.0,3.0,95,0.00,,,0.02,Wunderground v.1.15,2013-04-29 11:20:00,
2013-04-29 07:30:00,55.8,54.7,29.94,SW,225,2.0,2.0,96,0.00,,,0.02,Wunderground v.1.15,2013-04-29 11:30:00,
2013-04-29 07:35:00,55.8,54.7,29.95,South,174,2.0,3.0,96,0.00,,,0.02,Wunderground v.1.15,2013-04-29 11:35:00,
2013-04-29 07:40:00,55.8,54.7,29.95,SSW,196,2.0,2.0,96,0.00,,,0.02,Wunderground v.1.15,2013-04-29 11:40:00,
2013-04-29 07:45:00,55.8,54.7,29.95,SSW,203,3.0,3.0,96,0.00,,,0.02,Wunderground v.1.15,2013-04-29 11:45:00,
2013-04-29 07:50:00,55.9,54.8,29.95,SSW,208,2.0,2.0,96,0.00,,,0.02,Wunderground v.1.15,2013-04-29 11:50:00,
2013-04-29 07:55:00,55.9,54.8,29.95,SW,214,2.0,2.0,96,0.00,,,0.02,Wunderground v.1.15,2013-04-29 11:55:00,
2013-04-29 08:00:00,56.0,54.9,29.95,SSW,210,1.0,1.0,96,0.00,,,0.02,Wunderground v.1.15,2013-04-29 12:00:00,
2013-04-29 08:10:00,56.2,55.1,29.95,South,190,2.0,2.0,96,0.00,,,0.02,Wunderground v.1.15,2013-04-29 12:10:00,
2013-04-29 08:20:00,56.6,55.5,29.95,South,191,3.0,3.0,96,0.00,,,0.02,Wunderground v.1.15,2013-04-29 12:20:00,
2013-04-29 08:25:00,56.8,55.7,29.95,SSW,196,3.0,4.0,96,0.00,,,0.02,Wunderground v.1.15,2013-04-29 12:25:00,
2013-04-29 08:30:00,56.9,55.8,29.95,South,187,4.0,4.0,96,0.00,,,0.02,Wunderground v.1.15,2013-04-29 12:30:00,
2013-04-29 08:35:00,57.0,55.9,29.95,South,179,4.0,4.0,96,0.00,,,0.02,Wunderground v.1.15,2013-04-29 12:35:00,
2013-04-29 08:40:00,57.2,56.1,29.95,SW,225,4.0,4.0,96,0.00,,,0.02,Wunderground v.1.15,2013-04-29 12:40:00,
2013-04-29 08:50:00,57.4,56.0,29.95,SSW,201,5.0,5.0,95,0.00,,,0.02,Wunderground v.1.15,2013-04-29 12:50:00,
2013-04-29 08:55:00,57.4,56.0,29.96,SW,219,4.0,5.0,95,0.00,,,0.02,Wunderground v.1.15,2013-04-29 12:55:00,
2013-04-29 09:00:00,57.6,56.2,29.96,SW,226,4.0,4.0,95,0.00,,,0.02,Wunderground v.1.15,2013-04-29 13:00:00,
2013-04-29 09:10:00,57.8,56.4,29.96,SW,232,4.0,6.0,95,0.00,,,0.02,Wunderground v.1.15,2013-04-29 13:10:00,
2013-04-29 09:15:00,57.9,56.5,29.95,South,169,5.0,6.0,95,0.00,,,0.02,Wunderground v.1.15,2013-04-29 13:15:00,
2013-04-29 09:20:00,58.0,56.6,29.95,SSE,163,4.0,4.0,95,0.00,,,0.02,Wunderground v.1.15,2013-04-29 13:20:00,
2013-04-29 09:25:00,58.2,56.8,29.96,South,190,4.0,5.0,95,0.00,,,0.02,Wunderground v.1.15,2013-04-29 13:25:00,
2013-04-29 09:30:00,58.3,56.6,29.96,SSW,194,4.0,4.0,94,0.00,,,0.02,Wunderground v.1.15,2013-04-29 13:30:00,
2013-04-29 09:35:00,58.6,56.9,29.96,SW,218,4.0,4.0,94,0.00,,,0.02,Wunderground v.1.15,2013-04-29 13:35:00,
2013-04-29 09:40:00,58.8,57.1,29.96,SSE,160,4.0,4.0,94,0.00,,,0.02,Wunderground v.1.15,2013-04-29 13:40:00,
2013-04-29 09:45:00,59.0,57.0,29.96,SSW,211,4.0,4.0,93,0.00,,,0.02,Wunderground v.1.15,2013-04-29 13:45:00,
2013-04-29 09:55:00,59.1,56.8,29.96,SSE,163,3.0,4.0,92,0.00,,,0.02,Wunderground v.1.15,2013-04-29 13:55:00,
2013-04-29 10:00:00,59.0,56.7,29.96,South,181,4.0,4.0,92,0.00,,,0.02,Wunderground v.1.15,2013-04-29 14:00:00,
2013-04-29 10:10:00,59.0,57.0,29.96,SSW,201,4.0,5.0,93,0.00,,,0.02,Wunderground v.1.15,2013-04-29 14:10:00,
2013-04-29 10:15:00,59.5,57.5,29.96,SSE,155,5.0,5.0,93,0.00,,,0.02,Wunderground v.1.15,2013-04-29 14:15:00,
2013-04-29 10:20:00,59.9,57.6,29.96,SSE,165,5.0,5.0,92,0.00,,,0.02,Wunderground v.1.15,2013-04-29 14:20:00,
2013-04-29 10:30:00,60.2,57.3,29.96,SSW,203,4.0,5.0,90,0.00,,,0.02,Wunderground v.1.15,2013-04-29 14:30:00,
2013-04-29 10:40:00,60.4,57.8,29.97,SSW,202,5.0,5.0,91,0.00,,,0.02,Wunderground v.1.15,2013-04-29 14:40:00,
2013-04-29 10:45:00,60.7,58.1,29.96,SSE,162,4.0,5.0,91,0.00,,,0.02,Wunderground v.1.15,2013-04-29 14:45:00,
2013-04-29 10:50:00,60.8,57.5,29.96,SSE,148,4.0,4.0,89,0.00,,,0.02,Wunderground v.1.15,2013-04-29 14:50:00,
2013-04-29 10:55:00,60.7,57.4,29.96,South,189,4.0,8.0,89,0.00,,,0.02,Wunderground v.1.15,2013-04-29 14:55:00,
2013-04-29 11:00:00,61.0,57.7,29.96,South,169,5.0,5.0,89,0.00,,,0.02,Wunderground v.1.15,2013-04-29 15:00:00,
2013-04-29 11:10:00,61.9,58.0,29.96,SE,124,5.0,5.0,87,0.00,,,0.02,Wunderground v.1.15,2013-04-29 15:10:00,
2013-04-29 11:15:00,62.1,58.2,29.96,SSW,203,4.0,6.0,87,0.00,,,0.02,Wunderground v.1.15,2013-04-29 15:15:00,
2013-04-29 13:45:00,61.4,56.5,29.97,WSW,252,3.0,10.0,84,0.00,,,0.02,Wunderground v.1.15,2013-04-29 17:45:00,
2013-04-29 13:50:00,62.0,57.4,29.97,West,274,3.0,10.0,85,0.00,,,0.02,Wunderground v.1.15,2013-04-29 17:50:00,
2013-04-29 14:00:00,63.0,57.1,29.97,West,276,2.0,2.0,81,0.00,,,0.02,Wunderground v.1.15,2013-04-29 18:00:00,
2013-04-29 14:10:00,63.9,57.6,29.97,North,351,2.0,2.0,80,0.00,,,0.02,Wunderground v.1.15,2013-04-29 18:10:00,
2013-04-29 14:15:00,64.6,57.6,29.97,SW,222,1.0,3.0,78,0.00,,,0.02,Wunderground v.1.15,2013-04-29 18:15:00,
2013-04-29 14:20:00,65.1,57.0,29.97,NW,322,1.0,1.0,75,0.00,,,0.02,Wunderground v.1.15,2013-04-29 18:20:00,
2013-04-29 14:30:00,65.9,57.7,29.97,SE,129,1.0,1.0,75,0.00,,,0.02,Wunderground v.1.15,2013-04-29 18:30:00,
2013-04-29 14:40:00,65.7,57.9,29.97,South,190,2.0,5.0,76,0.00,,,0.02,Wunderground v.1.15,2013-04-29 18:40:00,
2013-04-29 14:45:00,65.4,57.6,29.97,SSW,211,4.0,5.0,76,0.00,,,0.02,Wunderground v.1.15,2013-04-29 18:45:00,
2013-04-29 14:50:00,65.2,57.8,29.97,SSW,196,4.0,4.0,77,0.00,,,0.02,Wunderground v.1.15,2013-04-29 18:50:00,
2013-04-29 14:55:00,65.2,57.8,29.96,SSW,194,3.0,6.0,77,0.00,,,0.02,Wunderground v.1.15,2013-04-29 18:55:00,
2013-04-29 15:00:00,65.3,57.9,29.96,SE,146,3.0,3.0,77,0.00,,,0.02,Wunderground v.1.15,2013-04-29 19:00:00,
2013-04-29 15:05:00,65.5,58.1,29.96,SSW,207,3.0,3.0,77,0.00,,,0.02,Wunderground v.1.15,2013-04-29 19:05:00,
2013-04-29 15:15:00,65.4,58.7,29.96,South,183,4.0,7.0,79,0.00,,,0.02,Wunderground v.1.15,2013-04-29 19:15:00,
2013-04-29 15:20:00,65.1,58.8,29.96,SSW,200,5.0,6.0,80,0.00,,,0.02,Wunderground v.1.15,2013-04-29 19:20:00,
2013-04-29 15:25:00,64.9,58.9,29.96,SSE,165,5.0,6.0,81,0.00,,,0.02,Wunderground v.1.15,2013-04-29 19:25:00,
2013-04-29 15:30:00,64.7,58.7,29.96,SW,217,5.0,5.0,81,0.00,,,0.02,Wunderground v.1.15,2013-04-29 19:30:00,
2013-04-29 15:35:00,64.7,58.0,29.96,SE,141,4.0,5.0,79,0.00,,,0.02,Wunderground v.1.15,2013-04-29 19:35:00,
2013-04-29 15:45:00,65.2,58.9,29.96,South,174,3.0,4.0,80,0.00,,,0.02,Wunderground v.1.15,2013-04-29 19:45:00,
2013-04-29 15:50:00,65.4,58.4,29.96,East,94,3.0,3.0,78,0.00,,,0.02,Wunderground v.1.15,2013-04-29 19:50:00,
2013-04-29 16:00:00,66.3,59.6,29.95,South,179,3.0,7.0,79,0.00,,,0.02,Wunderground v.1.15,2013-04-29 20:00:00,
2013-04-29 16:10:00,65.7,59.0,29.95,SSW,193,5.0,8.0,79,0.00,,,0.02,Wunderground v.1.15,2013-04-29 20:10:00,
2013-04-29 16:20:00,64.3,58.0,29.95,South,187,5.0,5.0,80,0.00,,,0.02,Wunderground v.1.15,2013-04-29 20:20:00,
2013-04-29 16:30:00,63.6,58.0,29.95,SSW,193,3.0,3.0,82,0.00,,,0.02,Wunderground v.1.15,2013-04-29 20:30:00,
2013-04-29 16:35:00,63.3,58.0,29.96,South,180,3.0,4.0,83,0.00,,,0.02,Wunderground v.1.15,2013-04-29 20:35:00,
2013-04-29 16:40:00,63.1,58.2,29.95,SSW,203,3.0,5.0,84,0.00,,,0.02,Wunderground v.1.15,2013-04-29 20:40:00,
2013-04-29 16:45:00,63.0,58.1,29.95,SSW,210,4.0,5.0,84,0.00,,,0.02,Wunderground v.1.15,2013-04-29 20:45:00,
2013-04-29 16:50:00,63.0,58.1,29.95,SW,217,4.0,4.0,84,0.00,,,0.02,Wunderground v.1.15,2013-04-29 20:50:00,
2013-04-29 17:00:00,63.0,57.4,29.95,SW,221,4.0,4.0,82,0.00,,,0.02,Wunderground v.1.15,2013-04-29 21:00:00,
2013-04-29 17:10:00,63.2,57.3,29.96,SSW,196,4.0,4.0,81,0.00,,,0.02,Wunderground v.1.15,2013-04-29 21:10:00,
2013-04-29 17:20:00,63.2,56.6,29.96,SSW,200,4.0,4.0,79,0.00,,,0.02,Wunderground v.1.15,2013-04-29 21:20:00,
2013-04-29 17:30:00,63.5,56.9,29.96,SSW,201,3.0,3.0,79,0.00,,,0.02,Wunderground v.1.15,2013-04-29 21:30:00,
2013-04-29 17:40:00,63.5,56.5,29.96,SSW,204,4.0,4.0,78,0.00,,,0.02,Wunderground v.1.15,2013-04-29 21:40:00,
2013-04-29 17:45:00,63.5,56.5,29.96,SSW,205,3.0,4.0,78,0.00,,,0.02,Wunderground v.1.15,2013-04-29 21:45:00,
2013-04-29 17:50:00,63.5,56.5,29.96,SSW,211,3.0,5.0,78,0.00,,,0.02,Wunderground v.1.15,2013-04-29 21:50:00,
2013-04-29 17:55:00,63.5,56.5,29.96,WSW,255,3.0,5.0,78,0.00,,,0.02,Wunderground v.1.15,2013-04-29 21:55:00,
2013-04-29 18:00:00,63.5,56.9,29.96,SW,221,4.0,6.0,79,0.00,,,0.02,Wunderground v.1.15,2013-04-29 22:00:00,
2013-04-29 18:10:00,63.7,57.1,29.96,South,188,4.0,5.0,79,0.00,,,0.02,Wunderground v.1.15,2013-04-29 22:10:00,
2013-04-29 18:15:00,63.8,57.9,29.96,SSW,196,3.0,5.0,81,0.00,,,0.02,Wunderground v.1.15,2013-04-29 22:15:00,
2013-04-29 18:20:00,63.9,57.3,29.96,South,188,3.0,5.0,79,0.00,,,0.02,Wunderground v.1.15,2013-04-29 22:20:00,
2013-04-29 18:25:00,63.9,57.3,29.97,SSW,204,4.0,5.0,79,0.00,,,0.02,Wunderground v.1.15,2013-04-29 22:25:00,
2013-04-29 18:30:00,64.1,57.5,29.97,SSW,205,4.0,4.0,79,0.00,,,0.02,Wunderground v.1.15,2013-04-29 22:30:00,
2013-04-29 18:35:00,64.4,57.4,29.96,SW,215,4.0,4.0,78,0.00,,,0.02,Wunderground v.1.15,2013-04-29 22:35:00,
2013-04-29 18:40:00,65.0,57.6,29.96,South,187,4.0,4.0,77,0.00,,,0.02,Wunderground v.1.15,2013-04-29 22:40:00,
2013-04-29 18:50:00,64.7,57.3,29.97,South,179,4.0,4.0,77,0.00,,,0.02,Wunderground v.1.15,2013-04-29 22:50:00,
2013-04-29 19:00:00,64.1,57.1,29.97,SSW,208,3.0,3.0,78,0.00,,,0.02,Wunderground v.1.15,2013-04-29 23:00:00,
2013-04-29 19:10:00,63.5,57.6,29.97,SW,219,3.0,3.0,81,0.00,,,0.02,Wunderground v.1.15,2013-04-29 23:10:00,
2013-04-29 19:25:00,63.0,58.1,29.97,SW,214,2.0,2.0,84,0.00,,,0.02,Wunderground v.1.15,2013-04-29 23:25:00,
2013-04-29 19:35:00,62.9,58.0,29.97,SSE,163,2.0,2.0,84,0.00,,,0.02,Wunderground v.1.15,2013-04-29 23:35:00,
2013-04-29 19:40:00,62.7,58.1,29.97,SW,224,2.0,2.0,85,0.00,,,0.02,Wunderground v.1.15,2013-04-29 23:40:00,
2013-04-29 19:45:00,62.5,57.9,29.97,SSW,207,1.0,2.0,85,0.00,,,0.02,Wunderground v.1.15,2013-04-29 23:45:00,
2013-04-29 19:55:00,62.1,57.9,29.98,SSW,205,0.0,1.0,86,0.00,,,0.02,Wunderground v.1.15,2013-04-29 23:55:00,
2013-04-29 20:00:00,61.8,57.9,29.98,SSW,205,0.0,0.0,87,0.00,,,0.02,Wunderground v.1.15,2013-04-30 00:00:00,
2013-04-29 20:10:00,61.4,57.5,29.98,SSW,205,0.0,0.0,87,0.00,,,0.02,Wunderground v.1.15,2013-04-30 00:10:00,
2013-04-29 20:20:00,60.8,57.2,29.98,SSW,205,0.0,0.0,88,0.00,,,0.02,Wunderground v.1.15,2013-04-30 00:20:00,
2013-04-29 20:25:00,60.5,57.2,29.98,SSW,205,0.0,0.0,89,0.00,,,0.02,Wunderground v.1.15,2013-04-30 00:25:00,
2013-04-29 20:35:00,59.5,56.6,29.98,SSW,205,0.0,0.0,90,0.00,,,0.02,Wunderground v.1.15,2013-04-30 00:35:00,
2013-04-29 20:40:00,59.0,56.1,29.98,SSW,205,0.0,1.0,90,0.00,,,0.02,Wunderground v.1.15,2013-04-30 00:40:00,
2013-04-29 20:45:00,58.5,55.9,29.99,SSW,205,1.0,1.0,91,0.00,,,0.02,Wunderground v.1.15,2013-04-30 00:45:00,
2013-04-29 20:50:00,58.2,55.9,29.99,SSW,205,0.0,0.0,92,0.00,,,0.02,Wunderground v.1.15,2013-04-30 00:50:00,
2013-04-29 21:00:00,57.8,55.8,29.99,SSW,205,1.0,1.0,93,0.00,,,0.02,Wunderground v.1.15,2013-04-30 01:00:00,
2013-04-29 21:10:00,57.4,55.4,29.99,SSW,204,1.0,1.0,93,0.00,,,0.02,Wunderground v.1.15,2013-04-30 01:10:00,
2013-04-29 21:15:00,57.3,55.3,30.00,SSW,204,0.0,1.0,93,0.00,,,0.02,Wunderground v.1.15,2013-04-30 01:15:00,
2013-04-29 21:20:00,57.1,55.4,30.00,SSW,204,0.0,0.0,94,0.00,,,0.02,Wunderground v.1.15,2013-04-30 01:20:00,
2013-04-29 21:25:00,57.0,55.3,30.00,SSW,204,0.0,0.0,94,0.00,,,0.02,Wunderground v.1.15,2013-04-30 01:25:00,
2013-04-29 21:30:00,56.9,55.2,30.00,SSW,204,0.0,0.0,94,0.00,,,0.02,Wunderground v.1.15,2013-04-30 01:30:00,
2013-04-29 21:40:00,56.9,55.5,30.00,SSW,204,0.0,0.0,95,0.00,,,0.02,Wunderground v.1.15,2013-04-30 01:40:00,
2013-04-29 21:50:00,56.8,55.4,30.00,SSW,204,0.0,0.0,95,0.00,,,0.02,Wunderground v.1.15,2013-04-30 01:50:00,
2013-04-29 21:55:00,56.8,55.4,30.01,SSW,204,0.0,0.0,95,0.00,,,0.02,Wunderground v.1.15,2013-04-30 01:55:00,
2013-04-29 22:00:00,56.7,55.3,30.00,SSW,204,0.0,0.0,95,0.00,,,0.02,Wunderground v.1.15,2013-04-30 02:00:00,
2013-04-29 22:10:00,56.6,55.2,30.00,SSW,204,0.0,0.0,95,0.00,,,0.02,Wunderground v.1.15,2013-04-30 02:10:00,
2013-04-29 22:15:00,56.3,54.9,30.00,SSW,204,0.0,0.0,95,0.00,,,0.02,Wunderground v.1.15,2013-04-30 02:15:00,
2013-04-29 22:20:00,56.0,54.6,30.01,SSW,204,0.0,0.0,95,0.00,,,0.02,Wunderground v.1.15,2013-04-30 02:20:00,
2013-04-29 22:25:00,55.6,54.2,30.01,SSW,205,0.0,0.0,95,0.00,,,0.02,Wunderground v.1.15,2013-04-30 02:25:00,
2013-04-29 22:35:00,54.9,53.5,30.01,SSW,204,0.0,0.0,95,0.00,,,0.02,Wunderground v.1.15,2013-04-30 02:35:00,
2013-04-29 22:40:00,54.8,53.4,30.00,SSW,204,0.0,0.0,95,0.00,,,0.02,Wunderground v.1.15,2013-04-30 02:40:00,
2013-04-29 22:45:00,54.6,53.2,30.00,SSW,204,0.0,0.0,95,0.00,,,0.02,Wunderground v.1.15,2013-04-30 02:45:00,
2013-04-29 22:50:00,54.3,52.9,30.00,SSW,204,0.0,0.0,95,0.00,,,0.02,Wunderground v.1.15,2013-04-30 02:50:00,
2013-04-29 22:55:00,53.8,52.4,30.00,SSW,204,0.0,0.0,95,0.00,,,0.02,Wunderground v.1.15,2013-04-30 02:55:00,
2013-04-29 23:00:00,53.3,51.9,30.00,SSW,204,0.0,0.0,95,0.00,,,0.02,Wunderground v.1.15,2013-04-30 03:00:00,
2013-04-29 23:10:00,53.2,52.1,30.00,SSW,204,0.0,0.0,96,0.00,,,0.02,Wunderground v.1.15,2013-04-30 03:10:00,
2013-04-29 23:15:00,53.1,52.0,30.00,SSW,204,0.0,0.0,96,0.00,,,0.02,Wunderground v.1.15,2013-04-30 03:15:00,
2013-04-29 23:20:00,52.8,51.7,30.01,SSW,204,0.0,0.0,96,0.00,,,0.02,Wunderground v.1.15,2013-04-30 03:20:00,
2013-04-29 23:25:00,52.6,51.5,30.01,SSW,204,0.0,0.0,96,0.00,,,0.02,Wunderground v.1.15,2013-04-30 03:25:00,
2013-04-29 23:30:00,52.7,51.6,30.01,SSW,204,0.0,0.0,96,0.00,,,0.02,Wunderground v.1.15,2013-04-30 03:30:00,
2013-04-29 23:35:00,52.7,51.6,30.01,SSW,204,0.0,0.0,96,0.00,,,0.02,Wunderground v.1.15,2013-04-30 03:35:00,
2013-04-29 23:45:00,52.5,51.4,30.01,SSW,204,0.0,0.0,96,0.00,,,0.02,Wunderground v.1.15,2013-04-30 03:45:00,
2013-04-29 23:50:00,52.3,51.2,30.01,SSW,204,0.0,0.0,96,0.00,,,0.02,Wunderground v.1.15,2013-04-30 03:50:00,
2013-04-29 23:55:00,52.3,51.2,30.01,SSW,204,0.0,0.0,96,0.00,,,0.02,Wunderground v.1.15,2013-04-30 03:55:00,